Flag for Austria Weather past 2 weeks in St. Pölten, Lower Austria, Austria

Now
59 °F

Light rain. Partly sunny.


Feels Like: 58 °F
Forecast: 47 / 65 °F
Wind: 6 mph from West

Location: Tulln Airport

Current Time: Aug 23, 2014 at 9:12:57 PM

Latest Report: Aug 23, 2014 at 8:50 PM


Visibility: 6 mi

Pressure: 29.95 "Hg

Humidity: 100%

Dew point: 59 °F

Location of St. PöltenLocation

Historic Weather in St. Pölten — Graph

°F

St. Pölten temperature yesterday

Maximum temperature yesterday: 73 °F (at 2:50 PM)
Minimum temperature yesterday: 55 °F (at 5:50 AM)
Average temperature yesterday: 65 °F

Past Weeks' High & Low Weather Summary

 TemperatureHumidityPressure
High90 °F (Aug 9, 2:50 PM)100% (Aug 19, 7:50 AM)30.09 "Hg (Aug 19, 7:50 AM)
Low50 °F (Aug 18, 5:50 AM)34% (Aug 18, 4:50 PM)29.68 "Hg (Aug 13, 7:50 PM)
Average67 °F73%29.96 "Hg
* Reported Aug 8 7:50 PM — Aug 23 7:50 PM, St. Pölten, Weather by CustomWeather, © 2014

Note: Actual official high and low records may vary slightly from our data, if they occured in-between our weather recording intervals... More about our weather records

Advertising

St. Pölten weather history for previous 24 hours

 ConditionsComfort  
Time TempWeatherWind HumidityBarometerVisibility
7:50 PM
Aug 23
59 °FLight rain. Broken clouds.6 mph100%29.92 "Hg6 mi
6:50 PM61 °FRain. Partly sunny.1 mph94%29.92 "Hg7 mi
5:50 PM61 °FBroken clouds.9 mph94%29.92 "Hg9 mi
4:50 PM66 °FHeavy rain. Partly sunny.7 mph83%29.92 "Hg6 mi
3:50 PM72 °FBroken clouds.6 mph65%29.92 "Hg19 mi
2:50 PM73 °FPartly sunny.7 mph53%29.92 "Hg25 mi
1:50 PM73 °FBroken clouds.6 mph57%29.95 "Hg25 mi
12:50 PM72 °FBroken clouds.6 mph69%29.95 "Hg25 mi
11:50 AM72 °FPartly sunny.7 mph69%29.98 "Hg25 mi
10:50 AM72 °FBroken clouds.6 mph65%29.98 "Hg22 mi
9:50 AM68 °FBroken clouds.3 mph73%29.98 "Hg22 mi
8:50 AM63 °FPartly sunny.5 mph83%29.98 "Hg25 mi
7:50 AM61 °FPartly sunny.5 mph88%29.98 "Hg25 mi
6:50 AM57 °FPassing clouds.2 mph94%29.98 "Hg37 mi
5:50 AM55 °FPassing clouds.5 mph94%29.98 "Hg37 mi
10:50 PM
Aug 22
64 °FSprinkles. Partly cloudy.6 mph83%29.98 "Hg6 mi
9:50 PM64 °FPartly cloudy.6 mph78%29.98 "Hg19 mi
Weather by CustomWeather, © 2014

See weather overviewHow to use our weather pages